When you browse on this site, cookies collect data to enhance your experience and personalize the content and advertising you see.
Visit our Privacy Policy to learn more. By continuing to use the site, you agree to this use of cookies and data.
  • In Czech Republic
  • List of Countries
  • For 7 days
  • Water Temperature
  • Satellite Maps
  • Weather Map
  • Weather Widgets
  • user-avatar
    Login

    Hourly Weather Guly

    Today, 23 May, Thursday

    Time Temperature Precipitation Wind Pressure Humidity
    00:00 +15°C° 0 mm 1 mps 742 mmHg 72%
    01:00 +15°C° 0 mm 1 mps 742 mmHg 73%
    02:00 +14°C° 0 mm 1 mps 742 mmHg 75%
    03:00 +15°C° 0 mm 1 mps 742 mmHg 76%
    04:00 +15°C° 0 mm 1 mps 742 mmHg 77%
    05:00 +15°C° 0 mm 1 mps 742 mmHg 77%
    06:00 +18°C° 0 mm 1 mps 742 mmHg 70%
    07:00 +20°C° 0 mm 1 mps 742 mmHg 64%
    08:00 +22°C° 0 mm 1 mps 742 mmHg 57%
    09:00 +23°C° 0 mm 1 mps 742 mmHg 52%
    10:00 +25°C° 0 mm 1 mps 742 mmHg 47%
    11:00 +26°C° 0 mm 2 mps 742 mmHg 41%
    12:00 +26°C° 0 mm 2 mps 742 mmHg 41%
    13:00 +26°C° 0 mm 2 mps 742 mmHg 42%
    14:00 +26°C° 0 mm 2 mps 742 mmHg 42%
    15:00 +26°C° 0 mm 2 mps 742 mmHg 44%
    16:00 +26°C° 0 mm 2 mps 742 mmHg 47%
    17:00 +25°C° 0 mm 2 mps 741 mmHg 50%
    18:00 +24°C° 0 mm 2 mps 741 mmHg 56%
    19:00 +21°C° 0 mm 2 mps 742 mmHg 62%
    20:00 +20°C° 0 mm 1 mps 742 mmHg 68%
    21:00 +18°C° 0 mm 2 mps 742 mmHg 71%
    22:00 +17°C° 0 mm 2 mps 742 mmHg 75%
    23:00 +16°C° 0 mm 2 mps 742 mmHg 78%

    Tomorrow, 24 May, Friday

    Time Temperature Precipitation Wind Pressure Humidity
    00:00 +16°C° 0 mm 2 mps 742 mmHg 80%
    01:00 +15°C° 0 mm 2 mps 742 mmHg 82%
    02:00 +15°C° 0 mm 1 mps 742 mmHg 84%
    03:00 +15°C° 0 mm 1 mps 742 mmHg 85%
    04:00 +15°C° 0 mm 1 mps 742 mmHg 85%
    05:00 +15°C° 0 mm 1 mps 742 mmHg 85%
    06:00 +18°C° 0 mm 1 mps 742 mmHg 78%
    07:00 +20°C° 0 mm 1 mps 742 mmHg 70%
    08:00 +23°C° 0 mm 1 mps 742 mmHg 63%
    09:00 +24°C° 0 mm 1 mps 742 mmHg 56%
    10:00 +25°C° 0 mm 1 mps 742 mmHg 50%
    11:00 +27°C° 0 mm 1 mps 742 mmHg 43%
    12:00 +27°C° 0 mm 1 mps 742 mmHg 44%
    13:00 +26°C° 0 mm 1 mps 742 mmHg 44%
    14:00 +26°C° 0 mm 1 mps 742 mmHg 45%
    15:00 +26°C° 0 mm 1 mps 742 mmHg 49%
    16:00 +25°C° 0 mm 1 mps 741 mmHg 53%
    17:00 +24°C° 0 mm 1 mps 741 mmHg 57%
    18:00 +23°C° 0.1 mm 1 mps 741 mmHg 64%
    19:00 +21°C° 0.1 mm 1 mps 741 mmHg 71%
    20:00 +20°C° 0.1 mm 1 mps 741 mmHg 78%
    21:00 +19°C° 0.1 mm 1 mps 741 mmHg 81%
    22:00 +18°C° 0.1 mm 1 mps 741 mmHg 84%
    23:00 +16°C° 0.1 mm 1 mps 741 mmHg 87%

    Day after tomorrow, 25 May, Saturday

    Time Temperature Precipitation Wind Pressure Humidity
    00:00 +15°C° 0.1 mm 0 mps 741 mmHg 88%
    01:00 +15°C° 0.1 mm 0 mps 741 mmHg 89%
    02:00 +14°C° 0.1 mm 0 mps 741 mmHg 91%
    03:00 +15°C° 0.2 mm 0 mps 740 mmHg 91%
    04:00 +15°C° 0.2 mm 0 mps 740 mmHg 91%
    05:00 +15°C° 0.2 mm 0 mps 740 mmHg 92%
    06:00 +16°C° 0.1 mm 0 mps 740 mmHg 89%
    07:00 +19°C° 0.1 mm 1 mps 740 mmHg 86%
    08:00 +20°C° 0.1 mm 1 mps 740 mmHg 83%
    09:00 +21°C° 1.2 mm 1 mps 740 mmHg 78%
    10:00 +22°C° 1.2 mm 1 mps 740 mmHg 73%
    11:00 +23°C° 1.2 mm 2 mps 740 mmHg 68%
    12:00 +23°C° 1.9 mm 2 mps 740 mmHg 72%
    13:00 +21°C° 1.9 mm 2 mps 739 mmHg 75%
    14:00 +21°C° 1.9 mm 3 mps 739 mmHg 78%
    15:00 +21°C° 0.3 mm 3 mps 739 mmHg 77%
    16:00 +21°C° 0.3 mm 2 mps 739 mmHg 76%
    17:00 +21°C° 0.3 mm 2 mps 739 mmHg 75%
    18:00 +19°C° 0.1 mm 2 mps 739 mmHg 78%
    19:00 +18°C° 0.1 mm 2 mps 739 mmHg 81%
    20:00 +18°C° 0.1 mm 1 mps 739 mmHg 84%
    21:00 +16°C° 0 mm 2 mps 739 mmHg 85%
    22:00 +15°C° 0 mm 2 mps 739 mmHg 86%
    23:00 +13°C° 0 mm 3 mps 739 mmHg 87%

    26 May, Sunday

    Time Temperature Precipitation Wind Pressure Humidity
    00:00 +12°C° 0 mm 3 mps 739 mmHg 90%
    01:00 +12°C° 0 mm 3 mps 739 mmHg 92%
    02:00 +11°C° 0 mm 3 mps 740 mmHg 95%
    03:00 +10°C° 0 mm 3 mps 740 mmHg 94%
    04:00 +10°C° 0 mm 2 mps 740 mmHg 93%
    05:00 +9°C° 0 mm 2 mps 740 mmHg 92%
    06:00 +12°C° 0 mm 2 mps 740 mmHg 84%
    07:00 +12°C° 0 mm 3 mps 740 mmHg 76%
    08:00 +14°C° 0 mm 4 mps 741 mmHg 68%
    09:00 +15°C° 0 mm 4 mps 740 mmHg 63%
    10:00 +18°C° 0 mm 4 mps 740 mmHg 57%
    11:00 +19°C° 0 mm 4 mps 740 mmHg 52%
    12:00 +19°C° 0 mm 5 mps 740 mmHg 50%
    13:00 +20°C° 0 mm 5 mps 739 mmHg 49%
    14:00 +21°C° 0 mm 5 mps 739 mmHg 47%
    15:00 +20°C° 0.2 mm 5 mps 739 mmHg 54%
    16:00 +19°C° 0.2 mm 5 mps 739 mmHg 60%
    17:00 +17°C° 0.2 mm 5 mps 738 mmHg 67%
    18:00 +15°C° 0.4 mm 5 mps 738 mmHg 74%
    19:00 +13°C° 0.4 mm 5 mps 739 mmHg 82%
    20:00 +10°C° 0.4 mm 5 mps 739 mmHg 90%
    21:00 +9°C° 0.1 mm 5 mps 739 mmHg 91%
    22:00 +9°C° 0.1 mm 5 mps 739 mmHg 91%
    23:00 +8°C° 0.1 mm 4 mps 739 mmHg 92%

    27 May, Monday

    Time Temperature Precipitation Wind Pressure Humidity
    00:00 +7°C° 0 mm 4 mps 739 mmHg 92%
    01:00 +7°C° 0 mm 5 mps 740 mmHg 93%
    02:00 +6°C° 0 mm 5 mps 740 mmHg 93%
    03:00 +6°C° 0 mm 5 mps 740 mmHg 92%
    04:00 +6°C° 0 mm 5 mps 740 mmHg 91%
    05:00 +6°C° 0 mm 5 mps 741 mmHg 90%
    06:00 +7°C° 0.1 mm 5 mps 741 mmHg 85%
    07:00 +9°C° 0.1 mm 5 mps 742 mmHg 80%
    08:00 +10°C° 0.1 mm 6 mps 742 mmHg 75%
    09:00 +11°C° 0 mm 6 mps 743 mmHg 70%
    10:00 +13°C° 0 mm 6 mps 743 mmHg 65%
    11:00 +14°C° 0 mm 6 mps 744 mmHg 61%
    12:00 +14°C° 0 mm 6 mps 744 mmHg 60%
    13:00 +15°C° 0 mm 5 mps 744 mmHg 59%
    14:00 +15°C° 0 mm 5 mps 744 mmHg 59%
    15:00 +17°C° 0 mm 4 mps 744 mmHg 58%
    16:00 +17°C° 0 mm 4 mps 744 mmHg 58%
    17:00 +18°C° 0 mm 4 mps 745 mmHg 57%
    18:00 +16°C° 0 mm 3 mps 745 mmHg 65%
    19:00 +15°C° 0 mm 2 mps 745 mmHg 72%
    20:00 +13°C° 0 mm 2 mps 745 mmHg 79%
    21:00 +12°C° 0 mm 2 mps 745 mmHg 83%
    22:00 +12°C° 0 mm 2 mps 745 mmHg 87%
    23:00 +10°C° 0 mm 2 mps 745 mmHg 90%

    28 May, Tuesday

    Time Temperature Precipitation Wind Pressure Humidity
    00:00 +9°C° 0 mm 2 mps 746 mmHg 91%
    01:00 +9°C° 0 mm 2 mps 746 mmHg 92%
    02:00 +9°C° 0 mm 2 mps 746 mmHg 93%
    03:00 +10°C° 0 mm 2 mps 746 mmHg 91%
    04:00 +10°C° 0 mm 2 mps 746 mmHg 89%
    05:00 +10°C° 0 mm 2 mps 745 mmHg 87%
    06:00 +12°C° 0 mm 3 mps 745 mmHg 80%
    07:00 +14°C° 0 mm 4 mps 745 mmHg 73%
    08:00 +17°C° 0 mm 4 mps 745 mmHg 66%
    09:00 +17°C° 0.5 mm 4 mps 745 mmHg 71%
    10:00 +16°C° 0.5 mm 5 mps 744 mmHg 77%
    11:00 +16°C° 0.5 mm 5 mps 744 mmHg 83%
    12:00 +16°C° 4.5 mm 5 mps 743 mmHg 87%
    13:00 +15°C° 4.5 mm 5 mps 743 mmHg 91%
    14:00 +15°C° 4.5 mm 5 mps 742 mmHg 94%
    15:00 +16°C° 0.7 mm 5 mps 742 mmHg 91%
    16:00 +19°C° 0.7 mm 5 mps 741 mmHg 87%
    17:00 +21°C° 0.7 mm 5 mps 741 mmHg 84%
    18:00 +20°C° 1.5 mm 5 mps 741 mmHg 86%
    19:00 +19°C° 1.5 mm 4 mps 741 mmHg 88%
    20:00 +19°C° 1.5 mm 4 mps 741 mmHg 91%
    21:00 +18°C° 0.4 mm 4 mps 741 mmHg 92%
    22:00 +18°C° 0.4 mm 4 mps 741 mmHg 93%
    23:00 +18°C° 0.4 mm 3 mps 741 mmHg 95%
    Show more